Charlottesville, VA

9:04 AM EDT on April 26, 2018 (GMT -0400)
Charlottesville-Albemarle

Weather History for KCHO - March, 2010

Change the Weather History Date:

Wednesday, March 31, 2010

  Actual Average Record
Temperature  
Mean Temperature 63 °F 51 °F  
Max Temperature 76 °F 63 °F 92 °F (1998)
Min Temperature 49 °F 39 °F 18 °F (1923)
Degree Days  
Heating Degree Days 2 14  
Month to date heating degree days 465 590  
Since 1 July heating degree days 3821 4004  
Cooling Degree Days 0 0  
Month to date cooling degree days 0 2  
Year to date cooling degree days 0 2  
Growing Degree Days 12 (Base 50)    
Moisture  
Dew Point 21 °F    
Average Humidity 29    
Maximum Humidity 46    
Minimum Humidity 11    
Precipitation  
Precipitation 0.00 in 0.14 in 1.15 in (2017)
Month to date precipitation 4.93 3.66  
Year to date precipitation 11.47 9.13  
Sea Level Pressure  
Sea Level Pressure 29.91 in    
Wind  
Wind Speed 6 mph (NW)    
Max Wind Speed 17 mph    
Max Gust Speed 31 mph    
Visibility 10 miles    
Events      
T = Trace of Precipitation, MM = Missing Value Source: NWS Daily Summary

Daily Weather History Graph

Daily Weather History Graph

Search for Another Location

Airport or City:

Astronomy

Mar. 31, 2010 Rise Set
Actual Time 7:00 AM EDT 7:35 PM EDT
Civil Twilight 6:33 AM EDT 8:02 PM EDT
Nautical Twilight 6:02 AM EDT 8:33 PM EDT
Astronomical Twilight 5:30 AM EDT 9:06 PM EDT
Moon 9:53 PM EDT (3/31) 7:27 AM EDT (3/31)
Length of Visible Light 13h 28m
Length of Day
12h 35m
Full, 97% of the Moon is Illuminated
Mar 31
Full
Apr 6
Last Quarter
Apr 14
New
Apr 21
First Quarter
Apr 28
Full

Hourly Weather History & Observations

Time (EDT) Temp. Dew Point Humidity Pressure Visibility Wind Dir Wind Speed Gust Speed Precip Events Conditions
12:53 AM 54.0 °F 23.0 °F 30% 29.80 in 10.0 mi Variable 3.5 mph - N/A   Clear
1:53 AM 54.0 °F 21.9 °F 29% 29.80 in 10.0 mi Variable 5.8 mph - N/A   Clear
2:53 AM 53.1 °F 21.0 °F 29% 29.80 in 10.0 mi Variable 5.8 mph - N/A   Clear
3:53 AM 51.1 °F 21.9 °F 32% 29.82 in 10.0 mi NNW 3.5 mph - N/A   Clear
4:53 AM 50.0 °F 21.0 °F 32% 29.83 in 10.0 mi Calm Calm - N/A   Clear
5:53 AM 51.1 °F 19.9 °F 29% 29.84 in 10.0 mi West 11.5 mph 20.7 mph N/A   Clear
6:53 AM 53.1 °F 17.1 °F 24% 29.86 in 10.0 mi NW 8.1 mph 24.2 mph N/A   Clear
7:53 AM 53.1 °F 19.9 °F 27% 29.89 in 10.0 mi NW 11.5 mph 21.9 mph N/A   Clear
8:53 AM 55.9 °F 19.0 °F 24% 29.91 in 10.0 mi NNW 13.8 mph 27.6 mph N/A   Clear
9:53 AM 57.9 °F 18.0 °F 21% 29.92 in 10.0 mi NW 13.8 mph 25.3 mph N/A   Clear
10:53 AM 62.1 °F 21.0 °F 21% 29.95 in 10.0 mi NW 13.8 mph 25.3 mph N/A   Clear
11:53 AM 66.0 °F 19.9 °F 17% 29.95 in 10.0 mi NW 13.8 mph 23.0 mph N/A   Clear
12:53 PM 68.0 °F 19.9 °F 16% 29.95 in 10.0 mi NNW 13.8 mph 23.0 mph N/A   Partly Cloudy
1:53 PM 71.1 °F 19.0 °F 14% 29.94 in 10.0 mi NW 9.2 mph 18.4 mph N/A   Clear
2:53 PM 73.0 °F 18.0 °F 12% 29.94 in 10.0 mi Variable 5.8 mph - N/A   Partly Cloudy
3:53 PM 73.9 °F 19.0 °F 13% 29.92 in 10.0 mi Variable 4.6 mph - N/A   Clear
4:53 PM 75.9 °F 18.0 °F 11% 29.91 in 10.0 mi North 3.5 mph - N/A   Clear
5:53 PM 75.0 °F 18.0 °F 12% 29.94 in 10.0 mi North 5.8 mph - N/A   Clear
6:53 PM 73.0 °F 19.9 °F 14% 29.94 in 10.0 mi Calm Calm - N/A   Clear
7:53 PM 66.9 °F 19.9 °F 17% 29.95 in 10.0 mi Calm Calm - N/A   Clear
8:53 PM 57.9 °F 25.0 °F 28% 29.96 in 10.0 mi Calm Calm - N/A   Clear
9:53 PM 57.9 °F 26.1 °F 30% 29.99 in 10.0 mi SSE 3.5 mph - N/A   Clear
10:53 PM 52.0 °F 26.1 °F 37% 30.01 in 10.0 mi Calm Calm - N/A   Clear
11:53 PM 48.9 °F 28.9 °F 46% 30.02 in 10.0 mi Calm Calm - N/A   Clear